Regional Weather Roundup
Issued by NWS Newport/Morehead, NC

Current Version | Previous Version | Graphics & Text | Print | Product List | Glossary Off
Versions: 1 2 3 4 5 6 7 8 9 10 11 12 13 14 15 16 17 18 19 20 21 22 23 24 25 26 27 28 29 30 31 32 33 34 35 36 37 38 39 40 41 42 43 44 45 46 47 48 49 50

000
ASUS42 KMHX 300413
RWRMHX
WEATHER ROUNDUP FOR EASTERN NORTH CAROLINA
NATIONAL WEATHER SERVICE NEWPORT/MOREHEAD CITY NC
1200 AM EDT SUN AUG 30 2015

NOTE: "FAIR" INDICATES FEW OR NO CLOUDS BELOW 12,000 FEET
WITH NO SIGNIFICANT WEATHER AND/OR OBSTRUCTIONS TO VISIBILITY

NCZ015>017-031-032-045>047-102-103-300500-
NORTH COAST

CITY           SKY/WX    TMP DP  RH WIND       PRES   REMARKS
EDENTON        PTCLDY    68  63  84 NE3       30.14F
ELIZABETH CITY MOCLDY    72  67  84 N5        30.14S
KITTY HAWK     CLOUDY    77  69  76 NE3       30.12S
MANTEO         CLOUDY    75  70  83 NE6       30.13S

$$

NCZ045>047-081-094-103-104-300500-
CENTRAL COAST

CITY           SKY/WX    TMP DP  RH WIND       PRES   REMARKS
FRISCO         PTCLDY    77  73  87 NE7       30.11S
SWANQUARTER    NOT AVBL

$$

NCZ095-097-098-100-101-300500-
SOUTHERN COAST

CITY           SKY/WX    TMP DP  RH WIND       PRES   REMARKS
BEAUFORT       MOCLDY    72  67  84 CALM      30.13S
CEDAR ISLAND   NOT AVBL
JACKSONVILLE   MOCLDY    73  63  70 NE6       30.13F
PINEY ISLAND   MOCLDY   N/A N/A N/A N5        30.13S
WILMINGTON     MOCLDY    73  65  75 CALM      30.14S


$$

NCZ011>013-027>030-043-044-078>080-089-090>093-098-300500-
COASTAL PLAIN

CITY           SKY/WX    TMP DP  RH WIND       PRES   REMARKS
AHOSKIE        CLOUDY    67  63  88 CALM      30.16R
CLINTON        MOCLDY    69  65  88 CALM      30.16R
ELIZABETHTOWN  MOCLDY    71  64  78 CALM      30.15S
GOLDSBORO      CLOUDY    71  64  78 E2        30.14S
GREENVILLE     CLOUDY    70  68  94 CALM      30.16S
HAVELOCK       MOCLDY    74  66  76 N5        30.15S
KENANSVILLE      N/A     67  65  94 CALM      30.16S
KINSTON        MOCLDY    69  65  88 CALM      30.16S
NEW BERN       MOCLDY    70  65  84 CALM      30.15F
RICHLANDS      MOCLDY    68  61  77 CALM      30.15S
ROCKY MOUNT    MOCLDY    70  63  78 CALM      30.16R
WASHINGTON     MOCLDY    68  65  89 CALM      30.15S
WHITEVILLE     MOCLDY    70  66  85 CALM      30.15R

$$

AMZ130-135-150-152-154-156-158-170-250-252-270-ANZ085-086-088-633-658-670-300500-
MARINE OBSERVATIONS

STATION/POSITION TIME  TEMP    WIND        PRES    WAVE   SWELL
                       AIR SEA DIR/SP/G            HT/PER HT/PER
                 (UTC) (F)     (DEG/KT/KT) (MB)    (FT/S) (FT/S)
CHESAPEAKE LIGHT 0400   77     100/  9/ 11 1021.0
64 E VA BEACH    0350   78 78   50/ 10/ 12 1019.6    4/11   3/11
DUCK             NOT AVBL
2 E DUCK         0311      78                N/A     4/11   2/11
OREGON INLET     NOT AVBL
13E OREGON INLT  0400      78                N/A     5/11   3/11
HATTERAS CG      NOT AVBL
DIAMOND BUOY     0350   79 82   20/ 14/ 16 1019.0    4/11   3/11
CAPE LOOKOUT     0400   76     360/  6/  6 1019.9
BEAUFORT LAB     NOT AVBL
30 SE NEW RVR IN 0308   79 81   60/  8/ 14 1020.5
30 SE NEW RVR IN 0325      81                N/A     5/11   3/11
27 SE WRIGHTSVLE 0300   77 82   80/ 12/ 14   N/A
5 SE WRIGHTSVLE  0308   81 82   70/ 10/ 14 1020.3
225 S CAPE HAT   0350   83 84  240/  8/ 10 1020.5    5/11   5/11
41 SE CHARLESTON 0350   80 85  100/  8/ 12 1019.6    4/11   3/11

$$



USA.gov is the U.S. government's official web portal to all federal, state and local government web resources and services.